Lexington Weather

Lexington, Massachusetts, USA

32°F
11/15/2019 2:08am 
  • Lexington Conditions: Mostly cloudy
  • Temperature: 31.5°F / -0.3°CWarmer 0.6°F than last hour.
  • Dew Point: 29.1°FIncreased 1.2°Fsince last hour.
  • Relative Humidity: 91%Increased 3.0% since last hour.
  • Wind: Wind from SW SW 1 mph, 10-min avg: Calm, gust: 4 mph
  • Barometer: 30.19 in Steady
  • Visibility: 10 miles
  • Snow Today: 0.0 in
  •   

Regional Weather Roundup
for Boston / Norton, MA

        
000
ASUS41 KBOX 141910
RWRBOX

REGIONAL WEATHER ROUNDUP
NATIONAL WEATHER SERVICE BOSTON/NORTON MA
200 PM EST THU NOV 14 2019

NOTE:  "FAIR" INDICATES FEW OR NO CLOUDS BELOW 12,000 FEET WITH NO 
SIGNIFICANT WEATHER AND/OR OBSTRUCTIONS TO VISIBILITY.

MAZALL-142000-
EASTERN MASSACHUSETTS
  
CITY           SKY/WX    TMP DP  RH WIND       PRES   REMARKS
BOSTON         CLOUDY    41  24  51 S10       30.40F                  
BEVERLY        PTSUNNY   38  24  57 S12       30.39F WCI  30          
LAWRENCE       CLOUDY    34  18  52 E3        30.42F                  
BEDFORD        CLOUDY    38  23  55 S8        30.38F                  
BLUE HILL        N/A     35  23  61 S6        30.36F WCI  30          
NORWOOD        CLOUDY    41  23  48 SE3       30.39F                  
MARSHFIELD     CLOUDY    41  28  60 S10G17    30.40S                  
PLYMOUTH       CLOUDY    39  32  76 SE8       30.39F                  
TAUNTON        CLOUDY    42  28  57 SE5       30.38F                  
NEW BEDFORD    PTSUNNY   45  31  58 S8        30.38F                  
$$

MAZALL-142000-
CAPE COD AND THE ISLANDS
  
CITY           SKY/WX    TMP DP  RH WIND       PRES   REMARKS
FALMOUTH       MOSUNNY   41  32  70 S16G22    30.38F                  
HYANNIS        FAIR      43  30  60 S8        30.39F                  
CHATHAM        FAIR      40  30  67 VRB7G20   30.42F                  
PROVINCETOWN   CLOUDY    39  28  64 S8        30.42F                  
NANTUCKET      PTSUNNY   44  33  65 SE14      30.41F                  
MARTHAS VNYRD  LGT RAIN  43  36  76 E3        30.39F                  
$$
 
MAZALL-142000-
CENTRAL AND WESTERN MASSACHUSETTS
  
CITY           SKY/WX    TMP DP  RH WIND       PRES   REMARKS
WORCESTER      FAIR      33  22  63 S10       30.33F WCI  25          
FITCHBURG      CLOUDY    34  21  59 S8        30.38F WCI  27          
ORANGE         CLOUDY    34  20  56 SE7       30.35F WCI  28          
SPRINGFIELD    CLOUDY    32  17  52 CALM      30.35F                  
WESTFIELD      PTSUNNY   33  19  56 S6        30.35F WCI  28          
NORTH ADAMS    FLURRIES  34  17  50 CALM      30.31F                  
PITTSFIELD     CLOUDY    33  19  56 SW8       30.26F WCI  26          
$$
 
RIZALL-142000-
RHODE ISLAND
  
CITY           SKY/WX    TMP DP  RH WIND       PRES   REMARKS
PROVIDENCE     PTSUNNY   40  29  64 CALM      30.40F                  
NEWPORT        FAIR      46  29  51 S10G18    30.37F                  
BLOCK ISLAND   PTSUNNY   45  31  58 SW13      30.38F                  
SMITHFIELD     CLOUDY    37  25  61 VRB6      30.37F                  
WESTERLY       CLOUDY    47  30  51 S10G20    30.38F                  
$$
 
CTZALL-142000-
CONNECTICUT
  
CITY           SKY/WX    TMP DP  RH WIND       PRES   REMARKS
BRADLEY INTL   PTSUNNY   36  19  50 S3        30.36F                  
HARTFORD       FAIR      38  22  52 CALM      30.37F                  
BRIDGEPORT     FAIR      42  29  59 SW5       30.36F                  
DANBURY        FAIR      39  23  52 SW9       30.34F                  
GROTON         CLOUDY    48  34  58 SW17G23   30.36F                  
NEW HAVEN      PTSUNNY   43  30  60 SW6       30.36F                  
CHESTER        FAIR      45  30  57 VRB7G13   30.35F                  
MERIDEN        FAIR      40  25  55 S6        30.36F                  
WILLIMANTIC    FAIR      39  26  59 S6        30.37F                  
OXFORD         FAIR      38  25  59 SW10      30.33F WCI  31          
$$

MEZ002-015-021-024-NHZ003-005-008-011-012-014-VTZ005-008-142000-
NORTHERN NEW ENGLAND
  
CITY           SKY/WX    TMP DP  RH WIND       PRES   REMARKS
PORTLAND ME    CLOUDY    33  16  49 SW7       30.40F WCI  27          
BANGOR ME      CLOUDY    29  21  72 S7        30.40F WCI  22          
CONCORD NH     CLOUDY    28  13  53 SE6       30.38F WCI  22          
MANCHESTER NH  CLOUDY    30  13  49 CALM      30.38F                  
NASHUA NH      CLOUDY    33  15  47 CALM      30.40F                  
PORTSMOUTH NH  CLOUDY    33  15  48 SW5       30.39F WCI  28          
JAFFREY NH     PTSUNNY   33  22  63 S8        30.31F WCI  26          
KEENE NH       CLOUDY    32  17  54 CALM      30.35F                  
BURLINGTON VT  CLOUDY    28  19  69 S22G35    30.25F WCI  14          
MT. WASHINGTON SNOWSHWR   7   7 100 SW43G51     N/A  VSB 1/16WCI -20  
$$

NYZ052-076-142000-
EASTERN NEW YORK
  
CITY           SKY/WX    TMP DP  RH WIND       PRES   REMARKS
ALBANY         CLOUDY    33  17  51 S13       30.31F WCI  24          
NEW YORK CITY  PTSUNNY   44  21  40 S12       30.35F                  
$$
 
ANZALL-142000-
MARINE OBSERVATIONS
  
STATION/POSITION TIME  TEMP    WIND        PRES    VSBY  WAVE
                       AIR SEA DIR/SP/G                  HT/PER
                 (UTC) (F)     (DEG/KT/KT) (MB)    (MI)  (FT/S)
BOSTON BUOY      1850   39 52  150/ 12/ 16 1028.8F         2/ 2
BUZZARDS BAY     1800   41     200/  3/  5 1030.1F
NANTUCKET SOUND  1840      50                N/A           1/ 3
MASS BAY-STELLWA 1804   37 49  180/ 12/ 17 1029.6F  1 7/8  1/ 3
ISLE OF SHOALS   1800   33     180/ 12/ 14 1029.7F
S OF BLOCK IS    1900      58                N/A           2/13
$$

......................KEY.........................
  SKY/WX - SKY CONDITION/PRESENT WEATHER
  TMP    - TEMPERATURE IN FAHRENHEIT
  DWPT   - DEWPOINT IN FAHRENHEIT
  RH     - RELATIVE HUMIDITY IN PERCENT
  WIND   - DIRECTION AND SPEED IN MPH
  PRES   - MEAN SEA LEVEL PRESSURE IN INCHES OF HG
  WCI    - WIND CHILL INDEX
  VSB    - VISIBILITY IN MILES
  HX     - HEAT INDEX
  TC     - TEMPERATURE IN CELSIUS
  VRB    - VARIABLE WIND DIRECTION
  N/A    - NOT AVAILABLE
  
      

Other recent Regional Weather Roundups

Fri Nov 15, 2:00am

Fri Nov 15, 1:10am

Fri Nov 15, 1:00am

Fri Nov 15, 12:10am

Fri Nov 15, 12:00am

Thu Nov 14, 11:10pm

Thu Nov 14, 11:00pm

Thu Nov 14, 10:10pm

Thu Nov 14, 10:00pm

Thu Nov 14, 9:10pm

Thu Nov 14, 9:00pm

Thu Nov 14, 8:10pm

Thu Nov 14, 8:00pm

Thu Nov 14, 7:10pm

Thu Nov 14, 7:00pm

Thu Nov 14, 6:10pm

Thu Nov 14, 6:01pm

Thu Nov 14, 5:10pm

Thu Nov 14, 5:00pm

Thu Nov 14, 4:10pm

Thu Nov 14, 4:00pm

Thu Nov 14, 3:10pm

Thu Nov 14, 3:00pm

Thu Nov 14, 2:00pm

Thu Nov 14, 1:10pm

Thu Nov 14, 1:00pm

Thu Nov 14, 12:10pm

Thu Nov 14, 12:01pm

Thu Nov 14, 11:10am

Thu Nov 14, 11:00am

Thu Nov 14, 10:10am

Thu Nov 14, 10:01am

Thu Nov 14, 9:10am

Thu Nov 14, 9:00am

Thu Nov 14, 8:10am

Thu Nov 14, 8:00am

Thu Nov 14, 7:10am

Thu Nov 14, 7:00am

Thu Nov 14, 6:10am

Thu Nov 14, 6:00am

Thu Nov 14, 5:10am

Thu Nov 14, 5:00am

Thu Nov 14, 4:10am

Thu Nov 14, 4:00am

Thu Nov 14, 3:10am

Thu Nov 14, 3:00am

Thu Nov 14, 2:10am

Thu Nov 14, 2:00am

Thu Nov 14, 1:10am

Thu Nov 14, 1:00am

Thu Nov 14, 12:10am

Thu Nov 14, 12:00am

Wed Nov 13, 11:10pm

Wed Nov 13, 11:00pm

Wed Nov 13, 10:10pm

Wed Nov 13, 10:00pm

Wed Nov 13, 9:10pm

Wed Nov 13, 9:00pm

Wed Nov 13, 8:10pm

Wed Nov 13, 8:00pm

Wed Nov 13, 7:10pm

Wed Nov 13, 7:00pm

Wed Nov 13, 6:10pm

Wed Nov 13, 6:01pm

Wed Nov 13, 5:10pm

Wed Nov 13, 5:00pm

Wed Nov 13, 4:10pm

Wed Nov 13, 4:00pm

Wed Nov 13, 3:10pm

Wed Nov 13, 3:01pm

Wed Nov 13, 2:10pm

Wed Nov 13, 2:01pm

Wed Nov 13, 1:10pm

Wed Nov 13, 1:00pm

Wed Nov 13, 12:10pm

Wed Nov 13, 12:01pm

Wed Nov 13, 11:10am

Wed Nov 13, 11:00am

Wed Nov 13, 10:10am

Wed Nov 13, 10:00am

Wed Nov 13, 9:10am

Wed Nov 13, 9:00am

Wed Nov 13, 8:10am

Wed Nov 13, 8:00am

Wed Nov 13, 7:10am

Wed Nov 13, 7:00am

Wed Nov 13, 6:10am

Wed Nov 13, 6:00am

Wed Nov 13, 5:10am

Wed Nov 13, 5:00am

Wed Nov 13, 4:10am

Wed Nov 13, 4:00am

Wed Nov 13, 3:10am

Wed Nov 13, 3:00am

Wed Nov 13, 2:10am

Wed Nov 13, 2:00am

Wed Nov 13, 1:10am

Wed Nov 13, 1:00am

Wed Nov 13, 12:10am

Wed Nov 13, 12:00am

Tue Nov 12, 11:10pm

Tue Nov 12, 11:00pm

Tue Nov 12, 10:10pm

Tue Nov 12, 10:00pm

Tue Nov 12, 9:10pm

Tue Nov 12, 9:00pm

Tue Nov 12, 8:10pm

Tue Nov 12, 8:00pm

Tue Nov 12, 7:10pm

Tue Nov 12, 7:01pm

Tue Nov 12, 6:10pm

Tue Nov 12, 6:01pm

Tue Nov 12, 5:10pm

Tue Nov 12, 5:01pm

Tue Nov 12, 4:10pm

Tue Nov 12, 4:01pm

Tue Nov 12, 3:10pm

Tue Nov 12, 3:00pm

Tue Nov 12, 2:10pm

Tue Nov 12, 2:00pm

Tue Nov 12, 1:10pm

Tue Nov 12, 1:00pm

Tue Nov 12, 12:10pm

Tue Nov 12, 12:00pm

Tue Nov 12, 11:10am

Tue Nov 12, 11:00am

Tue Nov 12, 10:10am

Tue Nov 12, 10:01am

Tue Nov 12, 9:10am

Tue Nov 12, 9:00am

Tue Nov 12, 8:10am

Tue Nov 12, 8:00am

Tue Nov 12, 7:10am

Tue Nov 12, 7:00am

Tue Nov 12, 6:10am

Tue Nov 12, 6:00am

Tue Nov 12, 5:10am

Tue Nov 12, 5:01am

Tue Nov 12, 4:10am

Tue Nov 12, 4:00am

Tue Nov 12, 3:10am

Tue Nov 12, 3:01am

Tue Nov 12, 2:10am

Meta data:

ID: 5039aae3-b074-4a7f-aeac-fdaeca63c4fc
Link: https://api.weather.gov/products/5039aae3-b074-4a7f-aeac-fdaeca63c4fc